Location: Bismarck
(46.7731°N, 100.8200°W)
Time: 09:06:28
(UTC-05:00)

Amateur Radio Satellites - All Passes

Search period start: 21 September 2014 08:36
Search period end: 22 September 2014 08:36
Location: Bismarck, 46.7731°N, 100.8200°W

Satellite Date Start Highest point End Downlink Frequencies (MHz)
Time Altitude Azimuth
MaSat-1 21 Sep 08:40:28 08:45:03 37° 110° (ESE) 08:49:32 437.345 MHz
SO-67 21 Sep 08:42:08 08:45:32 51° 100° (E) 08:48:54 435.3500 MHz FM
JAS-2 21 Sep 09:03:46 09:08:53 31° 296° (WNW) 09:14:32 435.800 - 435.900 CW/SSB, 435.910 FM
UOSAT-12 21 Sep 09:04:18 09:09:03 71° 51° (NE) 09:13:43 437.025 FM, 437.400 FM
HO-68 21 Sep 09:07:18 09:10:21 13° 84° (E) 09:13:24 435.675 MHz FM
SO-50 21 Sep 09:18:32 09:20:30 12° 252° (WSW) 09:22:28 436.795 FM
ISS 21 Sep 09:26:56 09:30:05 39° 216° (SW) 09:33:12 145.800 FM
STRAND 1 21 Sep 09:27:30 09:28:30 11° 274° (W) 09:29:31 ?
SO-67 21 Sep 10:16:40 10:18:09 12° 297° (WNW) 10:19:37 435.3500 MHz FM
MaSat-1 21 Sep 10:17:11 10:21:48 36° 308° (NW) 10:26:15 437.345 MHz
UKube-1 21 Sep 10:21:25 10:24:23 18° 92° (E) 10:27:19 145.840 MHz, 145.915 MHz
RS-15 21 Sep 10:30:50 10:40:16 31° 9° (N) 10:49:53 29.354 - 29.394 USB, Beacon 29.352 USB
UOSAT-12 21 Sep 10:45:35 10:48:40 17° 249° (WSW) 10:51:43 437.025 FM, 437.400 FM
HO-68 21 Sep 10:52:11 10:59:22 69° 104° (ESE) 11:06:31 435.675 MHz FM
FUNcube-1 21 Sep 11:32:53 11:37:05 33° 96° (E) 11:41:13 145.950 - 145.970 MHz USB
Oscar 11 21 Sep 11:37:54 11:42:17 82° 103° (ESE) 11:46:37 145.825 FM, Beacon 2401.500 USB
PCSat 21 Sep 11:48:56 11:52:27 18° 105° (ESE) 11:56:00 145.825 MHz
UKube-1 21 Sep 11:56:38 12:00:53 51° 289° (WNW) 12:05:06 145.840 MHz, 145.915 MHz
HO-68 21 Sep 12:40:37 12:46:32 29° 304° (NW) 12:52:28 435.675 MHz FM
RS-15 21 Sep 12:44:44 12:55:35 57° 41° (NE) 13:06:47 29.354 - 29.394 USB, Beacon 29.352 USB
Oscar 19 21 Sep 12:56:59 13:00:30 19° 58° (ENE) 13:04:02 437.125 CW, 437.150 USB
Sapphire 21 Sep 13:03:04 13:08:24 64° 118° (ESE) 13:13:47 437.095 MHz 1200 baud AX-25 AFSK
FUNcube-1 21 Sep 13:09:21 13:13:24 31° 294° (WNW) 13:17:25 145.950 - 145.970 MHz USB
Oscar 11 21 Sep 13:15:55 13:17:50 13° 302° (WNW) 13:19:45 145.825 FM, Beacon 2401.500 USB
AO-27 21 Sep 13:20:54 13:23:37 15° 55° (NE) 13:26:20 436.795 MHz FM
PCSat 21 Sep 13:29:49 13:35:14 77° 304° (NW) 13:40:42 145.825 MHz
AO-Echo 21 Sep 13:33:42 13:36:46 17° 60° (ENE) 13:39:49 ?
Oscar 16 21 Sep 13:34:35 13:39:20 38° 66° (ENE) 13:44:06 437.025 USB, Beacon 2401.1428
JAS-1B 21 Sep 13:48:43 13:56:02 39° 64° (ENE) 14:02:18 435.800 - 435.900 CW/SSB
ITAMSAT 1 21 Sep 14:22:01 14:26:51 43° 67° (ENE) 14:31:44 435.822 SSB
Gurwin Techsat 1B 21 Sep 14:22:58 14:27:07 24° 61° (ENE) 14:31:16 435.225 FM
Uribyol 2 21 Sep 14:25:34 14:30:31 48° 69° (ENE) 14:35:30 436.500 FM
Oscar 19 21 Sep 14:34:07 14:39:18 73° 257° (WSW) 14:44:31 437.125 CW, 437.150 USB
Sapphire 21 Sep 14:47:40 14:52:16 27° 319° (NW) 14:56:53 437.095 MHz 1200 baud AX-25 AFSK
AO-27 21 Sep 14:57:11 15:02:22 85° 74° (ENE) 15:07:35 436.795 MHz FM
RS-15 21 Sep 14:57:24 15:08:00 54° 246° (WSW) 15:19:01 29.354 - 29.394 USB, Beacon 29.352 USB
TMSAT-1 21 Sep 14:57:58 15:02:40 34° 65° (ENE) 15:07:23 436.925 FM
AO-Echo 21 Sep 15:10:23 15:15:04 65° 258° (WSW) 15:19:46 ?
Oscar 16 21 Sep 15:14:06 15:18:43 32° 264° (W) 15:23:24 437.025 USB, Beacon 2401.1428
PCSat 21 Sep 15:15:42 15:19:34 19° 326° (NW) 15:23:26 145.825 MHz
AO-7 21 Sep 15:27:04 15:34:08 33° 53° (NE) 15:41:10 29.400 - 29.500 MHz
JAS-1B 21 Sep 15:38:29 15:46:33 50° 260° (W) 15:53:22 435.800 - 435.900 CW/SSB
Gurwin Techsat 1B 21 Sep 16:01:31 16:06:43 56° 259° (W) 16:11:58 435.225 FM
ITAMSAT 1 21 Sep 16:02:06 16:06:30 28° 266° (W) 16:10:57 435.822 SSB
Uribyol 2 21 Sep 16:06:02 16:10:14 25° 267° (W) 16:14:28 436.500 FM
Uosat F 21 Sep 16:22:22 16:26:53 36° 66° (ENE) 16:31:26 435.120 FM
Sapphire 21 Sep 16:37:13 16:37:40 10° 344° (NNW) 16:38:07 437.095 MHz 1200 baud AX-25 AFSK
TMSAT-1 21 Sep 16:37:39 16:42:32 37° 263° (W) 16:47:27 436.925 FM
AO-27 21 Sep 16:40:02 16:42:34 14° 272° (W) 16:45:07 436.795 MHz FM
MaSat-1 21 Sep 16:54:39 16:57:15 16° 42° (NE) 16:59:37 437.345 MHz
RS-15 21 Sep 17:15:27 17:17:36 11° 268° (W) 17:19:46 29.354 - 29.394 USB, Beacon 29.352 USB
AO-7 21 Sep 17:18:03 17:26:20 72° 254° (WSW) 17:34:39 29.400 - 29.500 MHz
OPAL 21 Sep 17:29:13 17:32:27 17° 92° (E) 17:35:39 ?
Saudisat 1A 21 Sep 17:31:47 17:35:51 38° 119° (ESE) 17:39:56 436.775 MHz
JAS-2 21 Sep 17:35:17 17:39:34 27° 62° (ENE) 17:43:55 435.800 - 435.900 CW/SSB, 435.910 FM
Hamsat 21 Sep 17:43:47 17:47:14 23° 65° (ENE) 17:50:40 145.90 MHz
Uosat F 21 Sep 18:01:15 18:05:42 32° 264° (W) 18:10:11 435.120 FM
KITSAT 1 21 Sep 18:16:58 18:19:58 12° 97° (E) 18:22:57 435.175 FM
MaSat-1 21 Sep 18:30:38 18:34:27 58° 246° (WSW) 18:37:42 437.345 MHz
PCSat 21 Sep 18:50:02 18:51:34 11° 19° (NNE) 18:53:06 145.825 MHz
OPAL 21 Sep 19:06:42 19:11:53 72° 290° (WNW) 19:16:58 ?
Saudisat 1A 21 Sep 19:11:28 19:15:29 33° 318° (NW) 19:19:31 436.775 MHz
AO-7 21 Sep 19:16:11 19:20:36 15° 274° (W) 19:25:02 29.400 - 29.500 MHz
SO-67 21 Sep 19:18:00 19:20:57 27° 69° (ENE) 19:23:55 435.3500 MHz FM
Hamsat 21 Sep 19:18:52 19:22:58 40° 263° (W) 19:27:05 145.90 MHz
JAS-2 21 Sep 19:19:36 19:24:32 43° 262° (W) 19:29:31 435.800 - 435.900 CW/SSB, 435.910 FM
HO-68 21 Sep 19:39:40 19:43:56 17° 47° (NE) 19:48:12 435.675 MHz FM
STRAND 1 21 Sep 19:51:27 19:55:51 28° 95° (E) 20:00:15 ?
Sapphire 21 Sep 20:05:22 20:09:35 22° 37° (NE) 20:13:46 437.095 MHz 1200 baud AX-25 AFSK
KITSAT 1 21 Sep 20:05:48 20:13:42 62° 117° (ESE) 20:21:39 435.175 FM
PCSat 21 Sep 20:31:56 20:36:48 32° 44° (NE) 20:41:38 145.825 MHz
OPAL 21 Sep 20:47:37 20:49:52 13° 309° (NW) 20:52:06 ?
SO-67 21 Sep 20:51:20 20:53:59 20° 266° (W) 20:56:39 435.3500 MHz FM
Saudisat 1A 21 Sep 20:55:25 20:56:24 11° 341° (NNW) 20:57:22 436.775 MHz
Oscar 11 21 Sep 21:02:40 21:04:18 12° 58° (ENE) 21:05:57 145.825 FM, Beacon 2401.500 USB
UKube-1 21 Sep 21:19:40 21:23:05 23° 64° (ENE) 21:26:31 145.840 MHz, 145.915 MHz
HO-68 21 Sep 21:23:21 21:30:25 69° 68° (ENE) 21:37:31 435.675 MHz FM
STRAND 1 21 Sep 21:30:22 21:35:11 42° 293° (WNW) 21:40:00 ?
Sapphire 21 Sep 21:48:15 21:53:44 87° 239° (WSW) 21:59:09 437.095 MHz 1200 baud AX-25 AFSK
SO-50 21 Sep 21:55:28 21:58:07 16° 110° (ESE) 22:00:50 436.795 FM
KITSAT 1 21 Sep 22:01:55 22:09:30 42° 320° (NW) 22:17:08 435.175 FM
PCSat 21 Sep 22:15:12 22:20:27 52° 244° (WSW) 22:25:41 145.825 MHz
FUNcube-1 21 Sep 22:31:58 22:36:03 37° 68° (ENE) 22:40:15 145.950 - 145.970 MHz USB
Oscar 11 21 Sep 22:35:26 22:39:49 89° 256° (WSW) 22:44:13 145.825 FM, Beacon 2401.500 USB
AO-40 21 Sep 22:53:14 01:47:55 23° 128° (SE) 03:06:53 Beacon 2401.320
UKube-1 21 Sep 22:55:00 22:59:04 40° 261° (W) 23:03:11 145.840 MHz, 145.915 MHz
HO-68 21 Sep 23:12:55 23:18:42 26° 268° (W) 23:24:31 435.675 MHz FM
SO-50 21 Sep 23:33:35 23:38:05 74° 309° (NW) 23:42:44 436.795 FM
Sapphire 21 Sep 23:33:36 23:36:20 14° 257° (WSW) 23:39:04 437.095 MHz 1200 baud AX-25 AFSK
Oscar 10/S400 22 Sep 00:01:33 00:43:08 48° 200° (SSW) 07:43:38 145.825 - 145.975 CW/USB, Beacon 145.810 USB
KITSAT 1 22 Sep 00:01:36 00:07:23 21° 348° (NNW) 00:13:11 435.175 FM
FUNcube-1 22 Sep 00:08:50 00:12:33 26° 267° (W) 00:16:21 145.950 - 145.970 MHz USB
Saudisat 1A 22 Sep 00:16:46 00:19:38 17° 30° (NNE) 00:22:29 436.775 MHz
UOSAT-12 22 Sep 00:57:40 01:02:18 74° 124° (SE) 01:07:01 437.025 FM, 437.400 FM
SO-50 22 Sep 01:16:23 01:19:28 18° 331° (NNW) 01:22:38 436.795 FM
Saudisat 1A 22 Sep 01:55:33 01:59:59 73° 51° (NE) 02:04:23 436.775 MHz
KITSAT 1 22 Sep 02:00:03 02:06:10 23° 18° (NNE) 02:12:15 435.175 FM
ISS 22 Sep 02:12:08 02:14:01 14° 135° (SE) 02:15:55 145.800 FM
ITAMSAT 1 22 Sep 02:34:04 02:35:52 12° 86° (E) 02:37:41 435.822 SSB
Uribyol 2 22 Sep 02:36:59 02:39:32 14° 88° (E) 02:42:05 436.500 FM
UOSAT-12 22 Sep 02:39:11 02:42:57 23° 325° (NW) 02:46:46 437.025 FM, 437.400 FM
Oscar 19 22 Sep 02:43:08 02:47:46 32° 96° (E) 02:52:21 437.125 CW, 437.150 USB
AO-27 22 Sep 03:07:52 03:12:07 25° 93° (E) 03:16:20 436.795 MHz FM
AO-Echo 22 Sep 03:14:27 03:18:47 32° 96° (E) 03:23:13 ?
RS-15 22 Sep 03:16:32 03:23:40 20° 99° (E) 03:30:44 29.354 - 29.394 USB, Beacon 29.352 USB
JAS-1B 22 Sep 03:20:33 03:25:49 36° 96° (E) 03:31:04 435.800 - 435.900 CW/SSB
Oscar 16 22 Sep 03:22:06 03:27:18 73° 103° (ESE) 03:32:26 437.025 USB, Beacon 2401.1428
Saudisat 1A 22 Sep 03:36:26 03:39:01 15° 249° (WSW) 03:41:35 436.775 MHz
ISS 22 Sep 03:46:57 03:50:17 81° 152° (SSE) 03:53:37 145.800 FM
KITSAT 1 22 Sep 03:55:47 04:03:40 52° 45° (NE) 04:11:29 435.175 FM
ITAMSAT 1 22 Sep 04:10:55 04:16:10 83° 105° (ESE) 04:21:24 435.822 SSB
Uribyol 2 22 Sep 04:14:27 04:19:43 87° 285° (WNW) 04:24:57 436.500 FM
Gurwin Techsat 1B 22 Sep 04:14:42 04:19:50 47° 99° (E) 04:24:56 435.225 FM
Oscar 19 22 Sep 04:22:25 04:27:09 37° 294° (WNW) 04:31:50 437.125 CW, 437.150 USB
SO-50 22 Sep 04:42:45 04:44:48 13° 21° (NNE) 04:46:52 436.795 FM
OPAL 22 Sep 04:46:02 04:50:54 42° 65° (ENE) 04:55:49 ?
AO-27 22 Sep 04:46:51 04:51:53 49° 291° (WNW) 04:56:53 436.795 MHz FM
TMSAT-1 22 Sep 04:49:55 04:55:14 71° 103° (ESE) 05:00:32 436.925 FM
AO-Echo 22 Sep 04:53:12 04:57:35 35° 293° (WNW) 05:02:04 ?
Oscar 16 22 Sep 05:02:36 05:06:05 19° 302° (WNW) 05:09:33 437.025 USB, Beacon 2401.1428
JAS-1B 22 Sep 05:11:24 05:16:34 35° 297° (WNW) 05:21:38 435.800 - 435.900 CW/SSB
AO-7 22 Sep 05:16:37 05:23:58 34° 96° (E) 05:31:15 29.400 - 29.500 MHz
RS-15 22 Sep 05:23:07 05:34:05 77° 122° (ESE) 05:45:00 29.354 - 29.394 USB, Beacon 29.352 USB
ISS 22 Sep 05:24:05 05:27:13 37° 351° (N) 05:30:21 145.800 FM
KITSAT 1 22 Sep 05:51:27 05:59:03 47° 247° (WSW) 06:06:37 435.175 FM
ITAMSAT 1 22 Sep 05:51:49 05:55:00 17° 303° (WNW) 05:58:12 435.822 SSB
Gurwin Techsat 1B 22 Sep 05:55:08 05:59:35 28° 297° (WNW) 06:04:00 435.225 FM
Uribyol 2 22 Sep 05:55:35 05:58:26 15° 305° (NW) 06:01:16 436.500 FM
Uosat F 22 Sep 06:05:13 06:10:13 62° 102° (ESE) 06:15:12 435.120 FM
UOSAT-12 22 Sep 06:06:24 06:07:17 10° 14° (NNE) 06:08:09 437.025 FM, 437.400 FM
SO-50 22 Sep 06:22:13 06:26:42 38° 43° (NE) 06:31:13 436.795 FM
JAS-2 22 Sep 06:23:59 06:28:39 22° 92° (E) 06:33:42 435.800 - 435.900 CW/SSB, 435.910 FM
OPAL 22 Sep 06:25:22 06:29:53 30° 263° (W) 06:34:28 ?
TMSAT-1 22 Sep 06:30:56 06:34:37 20° 301° (WNW) 06:38:19 436.925 FM
ISS 22 Sep 07:01:13 07:04:24 40° 12° (NNE) 07:07:34 145.800 FM
Hamsat 22 Sep 07:01:49 07:05:32 29° 95° (E) 07:09:12 145.90 MHz
AO-7 22 Sep 07:09:05 07:17:13 63° 296° (WNW) 07:25:20 29.400 - 29.500 MHz
STRAND 1 22 Sep 07:10:05 07:15:02 54° 70° (ENE) 07:20:00 ?
RS-15 22 Sep 07:37:09 07:47:26 43° 329° (NNW) 07:57:48 29.354 - 29.394 USB, Beacon 29.352 USB
Uosat F 22 Sep 07:44:56 07:48:34 20° 300° (WNW) 07:52:11 435.120 FM
UOSAT-12 22 Sep 07:45:00 07:49:03 27° 38° (NE) 07:53:04 437.025 FM, 437.400 FM
SO-50 22 Sep 08:02:51 08:07:17 37° 242° (WSW) 08:11:45 436.795 FM
JAS-2 22 Sep 08:08:08 08:14:08 72° 288° (WNW) 08:20:56 435.800 - 435.900 CW/SSB, 435.910 FM
SO-67 22 Sep 08:11:37 08:14:21 21° 94° (E) 08:17:04 435.3500 MHz FM
MaSat-1 22 Sep 08:18:00 08:22:23 31° 109° (ESE) 08:26:41 437.345 MHz
